This is the latest recevied weather packets stored in our database for station/object WD8INF-9. If no packets are shown the sender has not sent any weather packets the latest 10 day(s).
| Time | Temp. | Humidity | Pressure | Rain* | Wind** | Luminosity | Snow |
|---|---|---|---|---|---|---|---|
| 1777748597 | 20.56° C | - | 1015.8 hPa | 0 mm | - | - | - |
| 1777748297 | 17.78° C | - | 1016 hPa | 0 mm | - | - | - |
| 1777747996 | 16.67° C | - | 1015.9 hPa | 0 mm | - | - | - |
| 1777747696 | 17.78° C | - | 1015.8 hPa | 0 mm | - | - | - |
| 1777747396 | 18.33° C | - | 1016 hPa | 0 mm | - | - | - |
| 1777747096 | 12.78° C | - | 1016.2 hPa | 0 mm | - | - | - |
| 1777746795 | 11.67° C | - | 1016.1 hPa | 0 mm | - | - | - |
| 1777746495 | 14.44° C | - | 1015.9 hPa | 0 mm | - | - | - |
| 1777746195 | 18.89° C | - | 1016 hPa | 0 mm | - | - | - |
| 1777745895 | 16.67° C | - | 1016.2 hPa | 0 mm | - | - | - |
| 1777745595 | 15° C | - | 1016.1 hPa | 0 mm | - | - | - |
| 1777745294 | 17.22° C | - | 1016 hPa | 0 mm | - | - | - |
| 1777744994 | 17.22° C | - | 1016.3 hPa | 0 mm | - | - | - |
| 1777744693 | 17.22° C | - | 1016.1 hPa | 0 mm | - | - | - |
| 1777744393 | 12.78° C | - | 1016.1 hPa | 0 mm | - | - | - |
| 1777744093 | 16.11° C | - | 1016.2 hPa | 0 mm | - | - | - |
| 1777743792 | 17.78° C | - | 1016.3 hPa | 0 mm | - | - | - |
| 1777743190 | 13.33° C | - | 1016.3 hPa | 0 mm | - | - | - |
| 1777742890 | 15° C | - | 1016.2 hPa | 0 mm | - | - | - |
| 1777742589 | 15° C | - | 1016.2 hPa | 0 mm | - | - | - |
| 1777742289 | 15° C | - | 1016.3 hPa | 0 mm | - | - | - |
| 1777741988 | 15.56° C | - | 1016.5 hPa | 0 mm | - | - | - |
| 1777741687 | 15° C | - | 1016.6 hPa | 0 mm | - | - | - |
| 1777741386 | 15.56° C | - | 1016.4 hPa | 0 mm | - | - | - |
| 1777741086 | 16.11° C | - | 1016.5 hPa | 0 mm | - | - | - |
* Rain since midnight (hover to see other rain measurements)
** Current wind speed in m/s (hover to see current wind gust speed)